Tracking 32964 objects as of 20-Jan-2026
HD Live streaming from Space Station
objects crossing your sky now

STARLINK-31100

Track STARLINK-31100 now!
10-day predictions
STARLINK-31100 is classified as:


NORAD ID: 58714
Int'l Code: 2024-002K
Perigee: 481.5 km
Apogee: 483.3 km
Inclination: 53.2 °
Period: 94.1 minutes
Semi major axis: 6853 km
RCS: Unknown
Launch date: January 3, 2024
Source: United States (US)
Launch site: AIR FORCE WESTERN TEST RANGE (AFWTR)
Your satellite tracking list
Your tracking list is empty




NASA's NSSDC Master Catalog

Two Line Element Set (TLE):
1 58714U 24002K   26019.62079366  .00001775  00000-0  72035-4 0  9991
2 58714  53.1596  97.7869 0001306  76.1437 283.9709 15.30198230114501
Source of the keplerian elements: AFSPC